Simultaneous Nadir Overpasses (SNOs) Predictions

Prediction of SNOs between GOES-16 and AQUA Satellite Orbit:

Table of predicted SNOs for the next 14.0 days since TLE Epoch: 1/20/2017
Index Date Time (GOES-16) GOES-16 Lat,Lon AQUA Lat,Lon Distance(km) Time Diff (sec)
1 01/21/2017 07:18:53 0.02, -89.52 -0.67, -86.30 365.52 80
2 01/21/2017 19:42:58 -0.02, -89.56 -0.40, -91.50 219.75 80
3 01/23/2017 19:28:08 -0.02, -89.64 0.23, -88.55 124.15 80
4 01/24/2017 07:52:04 0.02, -89.63 0.87, -93.71 463.04 80
5 01/25/2017 19:15:58 -0.02, -89.71 0.87, -85.60 468.17 80
6 01/26/2017 07:39:54 0.02, -89.70 0.23, -90.75 118.97 80
7 01/28/2017 07:25:04 0.02, -89.78 -0.42, -87.80 225.37 80
8 01/28/2017 19:49:08 -0.03, -89.82 -0.71, -92.99 359.88 80
9 01/30/2017 19:36:58 -0.03, -89.90 -0.06, -90.04 15.17 80
10 02/01/2017 19:22:08 -0.03, -89.99 0.60, -87.09 329.78 80
11 02/02/2017 07:46:03 0.03, -89.98 0.50, -92.24 256.82 80




NCC Satellite Simultaneous Nadir Overpasses (SNOs) Prediction Service
